{"data":{"norad_id":66197,"intl_designator":"2025-243W","name":"STARLINK-35259","alt_names":[],"object_type":"PAYLOAD","status":"ACTIVE","operator":null,"country":"US","launch_date":"2025-10-26","launch_site_code":"AFETR","launch_vehicle":null,"mission":null,"orbit_class":"UNKNOWN","rcs_meters":null,"size_class":null,"mass_kg":null,"dimensions":null,"purposes":["comms"],"wikipedia_slug":null,"has_3d_model":false,"image_url":null,"decayed_at":null,"tle_current":{"epoch":"2026-09-19T23:18:41.252256Z","epoch_age_seconds":146105,"freshness":"FRESH","line1":"1 66197U 25243W   26262.97131079  .00018510  00000+0  55756-3 0  9995","line2":"2 66197  53.1584  60.3894 0001113  86.7204 273.3926 15.34402687 50434","mean_motion":15.34402687,"eccentricity":0.0001113,"inclination_deg":53.1584,"raan_deg":60.3894,"arg_perigee_deg":86.7204,"mean_anomaly_deg":273.3926,"bstar":0.00055756,"rev_number":5043,"period_min":93.847593737953,"perigee_km":461.93386925864,"apogee_km":463.45663851836,"semimajor_km":6840.8322538885,"source":"CELESTRAK","updated_at":"2026-09-21T09:00:35.837777Z"}}}